[[{"header":{"parameterUnit":"m.s-1","parameterCategory":1,"la1":30.2991,"la2":30.254,"lo1":-89.0895,"lo2":-89.0444,"dy":0.0017,"dx":0.0017,"nx":28,"ny":28,"refTime":"2025-03-03T03:00:00:Z","depth":0,"parameterNumber":2,"parameterNumberName":"U-component_of_WINDS"},"data":[0,0,0,0,0,0,0,0,0,0,0,0,0,0,0,0,0,0,0,0,0,0,0,0,0,0,0,0,0,0,0,0,0,0,0,0,0,0,0,0,0,0,0,0,0,0,0,0,0,0,0,0,0,0,0,0,0,0,-4.4113,-4.4113,0,-4.415,-4.4151,-4.4151,-4.3998,-4.3993,-4.3989,-4.3985,-4.4026,-4.4031,-4.4036,0,0,0,0,0,0,0,0,0,0,0,0,0,-4.3911,-4.3916,-4.4113,-4.4113,-4.4114,-4.415,-4.4151,-4.4151,-4.3999,-4.3993,-4.3988,-4.3982,-4.4024,-4.403,-4.4036,0,0,0,0,0,0,0,0,0,0,0,0,0,-4.3979,-4.3917,-4.4113,-4.4042,-4.4036,-4.415,-4.4151,-4.4151,-4.4,-4.3993,-4.3986,-4.398,-4.4022,-4.4029,-4.4037,-4.4222,0,0,-4.4062,-4.4065,0,0,0,0,0,0,0,0,-4.3975,-4.3987,-4.4052,-4.4047,-4.4041,-4.4062,-4.4094,-4.4175,-4.4001,-4.4014,-4.3984,-4.3977,-4.4043,-4.4049,-4.4071,-4.4224,-4.4226,-4.4062,-4.4067,-4.4071,-4.4073,0,0,0,0,0,0,0,-4.3971,-4.3984,-4.4128,-4.4053,-4.4046,-4.4009,-4.4011,-4.4109,-4.4066,-4.4012,-4.4001,-4.4007,-4.4039,-4.4064,-4.4071,-4.4226,-4.4062,-4.4069,-4.4074,-4.4077,-4.4532,-4.4539,0,0,0,0,0,0,-4.3975,-4.3981,-4.4126,-4.4129,-4.399,-4.4018,-4.402,-4.4062,-4.4065,-4.4058,-4.4013,-4.4,-4.4054,-4.4062,-4.4072,-4.4288,-4.407,-4.4078,-4.4082,-4.4525,-4.4534,-4.4542,0,0,0,0,0,0,-4.3971,-4.399,-4.4125,-4.4052,-4.4066,-4.4029,-4.4077,-4.4067,-4.4091,-4.4065,-4.4057,-4.4046,-4.4049,-4.4061,-4.4186,-4.4288,-4.4082,-4.4089,-4.4516,-4.4528,-4.4538,-4.4723,0,0,0,0,0,0,-4.3966,-4.3989,-4.4059,-4.4055,-4.4071,-4.4238,-4.4083,-4.4072,-4.4105,-4.4088,-4.4094,-4.4089,-4.4044,-4.4175,-4.4194,-4.4295,-4.4095,-4.4507,-4.4521,-4.4534,-4.4708,-4.4739,-4.4766,0,0,0,0,0,-4.396,-4.411,-4.4063,-4.4081,-4.4157,-4.4244,-4.4254,-4.4198,-4.4114,-4.4184,-4.4167,-4.4089,-4.4273,-4.4189,-4.4209,-4.4314,-4.45,-4.4517,-4.4533,-4.4695,-4.4733,-4.4765,0,0,0,0,0,0,-4.4128,-4.4108,-4.4056,-4.4209,-4.423,-4.4218,-4.4305,-4.4241,-4.4286,-4.4269,-4.4199,-4.4201,-4.4339,-4.4338,-4.4245,-4.4493,-4.4372,-4.4393,-4.4488,-4.4524,-4.4553,-4.455,-4.4102,0,0,0,0,0,-4.4183,-4.4255,-4.4234,-4.4371,-4.4384,-4.4343,-4.4379,-4.4335,-4.4353,-4.4361,-4.4353,-4.4375,-4.4438,-4.4481,-4.4537,-4.4706,-4.4706,-4.4789,-4.4818,-4.4842,-4.4861,-4.4951,-4.4988,-4.4596,-4.4596,-4.4595,0,0,-4.4297,-4.4295,-4.4345,-4.4405,-4.4415,-4.4492,-4.4351,-4.4439,-4.4495,-4.4375,-4.4492,-4.4487,-4.4507,-4.4655,-4.472,-4.4659,-4.4969,-4.4863,-4.4882,-4.4888,-4.4972,-4.5009,-4.5042,-4.4607,-4.4605,-4.4603,0,0,-4.4545,-4.4551,-4.4666,-4.4679,-4.4696,-4.4667,-4.4695,-4.4694,-4.4686,-4.4802,-4.4713,-4.478,-4.4889,-4.4906,-4.493,-4.5184,-4.5114,-4.5204,-4.5356,-4.5445,-4.5475,-4.5502,-4.5594,-4.5627,-4.5223,-4.5224,-4.5224,0,-4.4685,-4.4797,-4.4733,-4.4826,-4.4855,-4.4749,-4.4865,-4.4881,-4.4917,-4.4939,-4.487,-4.5005,-4.501,-4.5161,-4.5223,-4.5245,-4.5275,-4.5203,-4.5476,-4.5502,-4.5527,-4.5613,-4.5647,-4.5235,-4.5233,-4.5232,-4.5231,0,-4.4969,-4.5047,-4.5138,-4.5174,-4.5213,-4.5318,-4.527,-4.5318,-4.527,-4.5249,-4.5369,-4.5372,-4.5427,-4.5459,-4.5413,-4.5604,-4.5565,-4.5488,-4.5365,-4.5576,-4.5656,-4.5688,-4.525,-4.5246,-4.5243,-4.524,0,0,-4.5325,-4.5323,-4.5358,-4.5372,-4.5383,-4.5443,-4.5543,-4.5595,-4.5638,-4.5666,-4.5748,-4.5843,-4.577,-4.5797,-4.5752,-4.583,-4.6031,-4.5742,-4.5741,-4.5796,-4.6241,-4.6301,-4.634,-4.5984,-4.599,-4.5995,-4.624,0,-4.5568,-4.5737,-4.5683,-4.5855,-4.5927,-4.5826,-4.5913,-4.5929,-4.5913,-4.5972,-4.5952,-4.6021,-4.592,-4.5936,-4.6008,-4.5991,-4.612,-4.5973,-4.6061,-4.6065,-4.606,-4.6381,-4.6444,-4.6676,-4.6271,-4.6276,-4.628,0,-4.5875,-4.5914,-4.6093,-4.6091,-4.6119,-4.6198,-4.6242,-4.6299,-4.6316,-4.6298,-4.6328,-4.6267,-4.6365,-4.6242,-4.6376,-4.6278,-4.631,-4.6308,-4.6315,-4.6322,-4.6186,-4.6398,-4.6748,-4.6783,-4.6328,-4.6324,-4.6321,0,-4.6117,-4.6215,-4.6334,-4.635,-4.6351,-4.6409,-4.6412,-4.6421,-4.6457,-4.6495,-4.6517,-4.6567,-4.6595,-4.6635,-4.6589,-4.6504,-4.6731,-4.6604,-4.672,-4.6722,-4.6773,-4.6771,-4.7135,-4.6794,-4.6793,-4.6792,-4.6792,0,-4.6395,-4.6509,-4.6443,-4.6517,-4.6641,-4.6577,-4.6702,-4.6694,-4.6704,-4.6775,-4.669,-4.6759,-4.6694,-4.6757,-4.6721,-4.6838,-4.6851,-4.684,-4.683,-4.6849,-4.685,-4.687,-4.6853,-4.6801,-4.6799,-4.6798,-4.6796,0,-4.6688,-4.6648,-4.6772,-4.6762,-4.6762,-4.6854,-4.6846,-4.6914,-4.6891,-4.6982,-4.6999,-4.6963,-4.7032,-4.699,-4.7061,-4.7037,-4.719,-4.7157,-4.7185,-4.7176,-4.7295,-4.7285,-4.7685,-4.7734,-4.7361,-4.7364,-4.7367,0,-4.6868,-4.6953,-4.6952,-4.6993,-4.7001,-4.7069,-4.7104,-4.7044,-4.7084,-4.7109,-4.7175,-4.7237,-4.7283,-4.7399,-4.7379,-4.7433,-4.7401,-4.7537,-4.7409,-4.7425,-4.7404,-4.74,-4.7408,-4.7564,-4.7568,-4.7572,-4.7575,0,-4.7192,-4.7168,-4.7222,-4.7269,-4.7313,-4.7347,-4.7375,-4.7413,-4.7353,-4.7403,-4.7472,-4.7508,-4.758,-4.7643,-4.7688,-4.7692,-4.7625,-4.7615,-4.7645,-4.7666,-4.7678,-4.7674,-4.7257,-4.7607,-4.7604,-4.7601,-4.7599,-4.7598,-4.7434,-4.7505,-4.7516,-4.7578,-4.7592,-4.762,-4.7683,-4.7667,-4.7724,-4.7777,-4.7738,-4.7821,-4.7835,-4.7889,-4.7901,-4.7965,-4.791,-4.7953,-4.7964,-4.7976,-4.7993,-4.7667,-4.7973,-4.7972,-4.7971,-4.7971,-4.797,0,-4.7755,-4.7756,-4.7814,-4.7855,-4.7904,-4.7835,-4.7862,-4.7908,-4.7981,-4.8,-4.8047,-4.8127,-4.8187,-4.8172,-4.8227,-4.8281,-4.8252,-4.8298,-4.8293,-4.8295,-4.8039,-4.8008,-4.8321,-4.832,-4.832,-4.832,-4.832,-4.832,-4.7928,-4.8044,-4.8021,-4.8144,-4.8144,-4.8224,-4.8245,-4.827,-4.8284,-4.8377,-4.8427,-4.8416,-4.8422,-4.8476,-4.8528,-4.8522,-4.8546,-4.8604,-4.8587,-4.8348,-4.8313,-4.828,-4.8251,-4.861,-4.861,-4.8839,-4.8841,-4.8842]},{"header":{"parameterUnit":"m.s-1","parameterCategory":1,"la1":30.2991,"la2":30.254,"lo1":-89.0895,"lo2":-89.0444,"dy":0.0017,"dx":0.0017,"nx":28,"ny":28,"refTime":"2025-03-03T03:00:00:Z","depth":0,"parameterNumber":3,"parameterNumberName":"V-component_of_WINDS"},"data":[0,0,0,0,0,0,0,0,0,0,0,0,0,0,0,0,0,0,0,0,0,0,0,0,0,0,0,0,0,0,0,0,0,0,0,0,0,0,0,0,0,0,0,0,0,0,0,0,0,0,0,0,0,0,0,0,0,0,-1.863,-1.8631,0,-1.867,-1.867,-1.8671,-1.8658,-1.8657,-1.8656,-1.8655,-1.8696,-1.8698,-1.87,0,0,0,0,0,0,0,0,0,0,0,0,0,-1.8542,-1.8544,-1.863,-1.8631,-1.8631,-1.867,-1.867,-1.8671,-1.8658,-1.8657,-1.8656,-1.8655,-1.8695,-1.8698,-1.87,0,0,0,0,0,0,0,0,0,0,0,0,0,-1.8581,-1.8545,-1.863,-1.8629,-1.863,-1.867,-1.867,-1.8671,-1.8658,-1.8657,-1.8656,-1.8655,-1.8695,-1.8697,-1.87,-1.8743,0,0,-1.8709,-1.871,0,0,0,0,0,0,0,0,-1.8579,-1.8584,-1.8629,-1.863,-1.863,-1.8658,-1.8654,-1.8695,-1.8659,-1.8647,-1.8655,-1.8654,-1.8684,-1.8688,-1.8698,-1.8745,-1.8747,-1.8709,-1.8711,-1.8712,-1.8713,0,0,0,0,0,0,0,-1.8576,-1.8582,-1.8646,-1.863,-1.863,-1.8627,-1.8631,-1.8662,-1.8672,-1.8648,-1.8647,-1.8652,-1.8684,-1.8695,-1.8699,-1.8747,-1.8709,-1.8711,-1.8713,-1.8714,-1.8829,-1.883,0,0,0,0,0,0,-1.8573,-1.858,-1.8645,-1.8647,-1.8601,-1.8629,-1.8634,-1.865,-1.8672,-1.8674,-1.8653,-1.8652,-1.8691,-1.8696,-1.87,-1.8751,-1.8712,-1.8714,-1.8716,-1.8828,-1.8829,-1.8831,0,0,0,0,0,0,-1.8571,-1.8579,-1.8643,-1.8613,-1.8621,-1.8632,-1.865,-1.8651,-1.8663,-1.8676,-1.8678,-1.8663,-1.869,-1.8696,-1.8732,-1.8752,-1.8716,-1.8718,-1.8826,-1.8828,-1.883,-1.8852,0,0,0,0,0,0,-1.8569,-1.8579,-1.8595,-1.8614,-1.8623,-1.8674,-1.8652,-1.8653,-1.8667,-1.8665,-1.8685,-1.8687,-1.869,-1.8728,-1.8735,-1.8755,-1.872,-1.8824,-1.8827,-1.8829,-1.885,-1.8855,-1.8859,0,0,0,0,0,-1.8566,-1.86,-1.8596,-1.8604,-1.8644,-1.8676,-1.8681,-1.8683,-1.8669,-1.8686,-1.8694,-1.8687,-1.8749,-1.8732,-1.8739,-1.8761,-1.8823,-1.8826,-1.8829,-1.8848,-1.8854,-1.8859,0,0,0,0,0,0,-1.8584,-1.8603,-1.8599,-1.864,-1.8656,-1.8673,-1.8695,-1.869,-1.871,-1.8707,-1.8709,-1.8714,-1.875,-1.8759,-1.874,-1.8802,-1.8784,-1.8789,-1.8795,-1.8801,-1.8806,-1.8802,-1.8723,0,0,0,0,0,-1.8593,-1.8617,-1.8632,-1.8668,-1.8676,-1.8684,-1.8698,-1.8698,-1.8715,-1.8721,-1.8732,-1.8749,-1.8772,-1.8787,-1.8809,-1.8851,-1.8855,-1.8869,-1.8874,-1.8878,-1.8882,-1.8903,-1.891,-1.8841,-1.8841,-1.8841,0,0,-1.8612,-1.8625,-1.864,-1.8672,-1.8684,-1.8708,-1.869,-1.8717,-1.8735,-1.8726,-1.8759,-1.8768,-1.8787,-1.8825,-1.8843,-1.8834,-1.8901,-1.8882,-1.8885,-1.8887,-1.8907,-1.8914,-1.8919,-1.8843,-1.8843,-1.8842,0,0,-1.8658,-1.8671,-1.8701,-1.8714,-1.8733,-1.8737,-1.8745,-1.8762,-1.8767,-1.8802,-1.8795,-1.8816,-1.8856,-1.8869,-1.8881,-1.893,-1.8924,-1.8937,-1.8961,-1.8982,-1.8988,-1.8992,-1.9009,-1.9015,-1.8941,-1.8941,-1.8941,0,-1.8679,-1.8716,-1.8717,-1.8744,-1.8758,-1.875,-1.878,-1.8792,-1.8817,-1.8826,-1.8816,-1.8865,-1.8877,-1.8918,-1.893,-1.894,-1.8947,-1.8935,-1.8987,-1.8992,-1.8996,-1.9012,-1.9018,-1.8943,-1.8942,-1.8942,-1.8942,0,-1.8739,-1.8765,-1.8787,-1.8811,-1.8827,-1.8855,-1.886,-1.8876,-1.8874,-1.888,-1.8914,-1.8928,-1.8952,-1.8962,-1.8961,-1.9002,-1.8996,-1.8986,-1.8967,-1.9004,-1.9019,-1.9025,-1.8945,-1.8944,-1.8944,-1.8943,0,0,-1.8799,-1.8823,-1.883,-1.8841,-1.886,-1.888,-1.8907,-1.893,-1.8943,-1.8961,-1.8983,-1.9017,-1.9007,-1.9021,-1.9021,-1.9039,-1.9076,-1.9027,-1.9027,-1.9035,-1.9121,-1.9127,-1.9134,-1.9072,-1.9073,-1.9074,-1.9119,0,-1.8846,-1.8895,-1.8896,-1.894,-1.8963,-1.8955,-1.8979,-1.8993,-1.8999,-1.9019,-1.9025,-1.9048,-1.9035,-1.9042,-1.906,-1.9068,-1.9093,-1.9065,-1.9092,-1.9093,-1.9087,-1.9142,-1.915,-1.9191,-1.9125,-1.9126,-1.9126,0,-1.8908,-1.8926,-1.8973,-1.8988,-1.8997,-1.9019,-1.9039,-1.9058,-1.9074,-1.9077,-1.9091,-1.9088,-1.9115,-1.9096,-1.9133,-1.9113,-1.9124,-1.913,-1.9131,-1.9133,-1.9111,-1.9145,-1.9205,-1.9211,-1.9136,-1.9135,-1.9134,0,-1.8945,-1.8982,-1.9014,-1.9023,-1.9042,-1.9056,-1.9065,-1.9079,-1.9092,-1.911,-1.9119,-1.914,-1.9151,-1.9167,-1.9169,-1.9155,-1.9206,-1.9187,-1.9208,-1.9208,-1.9219,-1.9218,-1.9281,-1.9228,-1.9228,-1.9228,-1.9227,0,-1.8997,-1.9025,-1.9031,-1.905,-1.9081,-1.9082,-1.9113,-1.912,-1.9132,-1.9153,-1.9147,-1.9167,-1.9169,-1.9189,-1.9191,-1.922,-1.9226,-1.9228,-1.9228,-1.9228,-1.9228,-1.9235,-1.9232,-1.9229,-1.9229,-1.9228,-1.9228,0,-1.9044,-1.9049,-1.9083,-1.9097,-1.9102,-1.9124,-1.9136,-1.9154,-1.9159,-1.9184,-1.919,-1.9198,-1.922,-1.9225,-1.9252,-1.9253,-1.9288,-1.9285,-1.9282,-1.9282,-1.9302,-1.93,-1.9371,-1.938,-1.9322,-1.9323,-1.9323,0,-1.9077,-1.9098,-1.9115,-1.9128,-1.9137,-1.9158,-1.9171,-1.9172,-1.9186,-1.9205,-1.9221,-1.9243,-1.926,-1.9296,-1.9304,-1.9324,-1.9322,-1.9345,-1.9325,-1.9323,-1.9321,-1.9319,-1.9321,-1.9349,-1.935,-1.935,-1.9351,0,-1.9134,-1.9135,-1.9154,-1.9174,-1.9189,-1.9205,-1.922,-1.9231,-1.9234,-1.925,-1.9272,-1.9286,-1.9313,-1.9334,-1.9354,-1.9362,-1.9357,-1.9357,-1.9363,-1.9363,-1.9359,-1.936,-1.9292,-1.9355,-1.9355,-1.9354,-1.9354,-1.9354,-1.9174,-1.9192,-1.9206,-1.9227,-1.9238,-1.9252,-1.9269,-1.9275,-1.9294,-1.9316,-1.9316,-1.934,-1.9354,-1.938,-1.9389,-1.9408,-1.9401,-1.9409,-1.9411,-1.9413,-1.9415,-1.9357,-1.9412,-1.9412,-1.9412,-1.9411,-1.9411,0,-1.9229,-1.9238,-1.9257,-1.9278,-1.9294,-1.9287,-1.9303,-1.9317,-1.9338,-1.9352,-1.9369,-1.9394,-1.9414,-1.9423,-1.9443,-1.9456,-1.9454,-1.9462,-1.946,-1.9462,-1.9421,-1.9413,-1.9463,-1.9463,-1.9463,-1.9463,-1.9463,-1.9463,-1.926,-1.929,-1.9292,-1.9327,-1.9335,-1.9359,-1.9368,-1.938,-1.939,-1.9419,-1.9436,-1.9441,-1.9452,-1.9473,-1.9491,-1.9493,-1.95,-1.9508,-1.9509,-1.947,-1.9465,-1.946,-1.9453,-1.951,-1.951,-1.9548,-1.9549,-1.9549]}]]